Lid_Strength_Index
11 15 15 12 10 10 11 12 13 12 10 10 11 11 9 7 7 7 7 6 6 5 4 4 4 4 5 5 6 6 6 7 6 6 6 6 7 6 5 4 3 2 3 2
13 16 11 9 10 12 12 13 13 11 10 10 11 11 9 8 7 7 7 6 6 5 5 5 4 4 4 5 5 6 6 6 6 6 7 6 6 6 5 5 3 1 2 2
14 12 10 11 12 12 12 12 13 13 11 10 11 12 11 8 7 7 7 7 6 7 7 6 6 6 5 6 6 6 6 6 6 6 6 6 6 6 6 6 6 4 1 1
14 10 11 11 11 10 14 10 11 12 13 17 11 18 13 10 9 9 9 8 7 7 7 7 7 7 7 7 6 6 6 6 5 5 6 7 8 8 7 6 5 5 1 0
14 12 11 12 11 9 13 10 11 12 14 14 14 16 13 10 11 9 9 8 8 8 8 8 8 8 8 7 7 6 6 6 5 4 5 6 8 7 7 6 6 4 3 0
12 8 8 9 9 9 9 11 12 12 14 19 15 15 15 12 11 10 9 9 9 9 9 8 8 8 8 8 8 7 7 7 6 5 4 4 6 7 7 7 7 5 3 1
13 11 8 8 10 9 11 13 18 19 19 19 13 16 14 11 9 10 11 10 9 10 10 10 10 10 9 9 9 9 8 8 7 6 5 4 4 5 6 7 6 6 5 2
16 16 10 8 10 12 12 13 18 23 21 19 14 18 14 10 9 10 9 10 10 10 11 11 10 10 10 10 9 9 9 9 8 8 7 5 4 4 5 6 6 5 4 2
15 15 9 8 8 9 12 15 11 17 16 19 16 13 11 10 11 10 11 11 11 11 12 12 11 11 11 11 11 10 10 9 9 9 7 6 4 2 4 5 6 6 4 1
11 16 10 9 8 8 11 10 16 15 21 22 17 16 15 12 12 12 12 12 12 12 13 13 13 12 12 11 11 11 11 10 9 8 8 7 5 2 2 4 5 6 3 1
10 12 13 10 12 13 12 13 13 13 15 20 21 19 10 13 13 13 13 13 13 14 14 14 14 13 13 13 12 12 11 11 10 9 8 7 6 4 2 4 4 5 2 2
9 12 16 13 10 11 12 13 13 17 18 16 18 19 11 12 11 11 13 14 14 14 14 14 14 14 14 14 14 14 13 12 11 10 9 8 6 4 3 3 4 4 2 2
12 14 17 16 13 12 13 12 13 13 14 18 20 18 11 11 11 11 14 14 14 15 15 15 15 15 15 16 15 15 14 13 11 11 10 8 6 5 4 3 4 2 2 4
10 14 16 18 15 12 14 13 12 14 18 18 17 17 14 13 12 13 14 15 15 15 16 16 16 16 16 16 16 15 15 13 12 11 8 7 5 5 3 3 3 3 4 5
13 18 14 14 12 12 13 14 14 16 16 18 17 18 15 14 13 14 14 15 16 16 17 17 17 17 17 17 17 16 16 14 14 12 10 7 6 6 6 8 7 7 5 6
13 16 14 16 13 14 17 15 15 15 15 17 17 18 13 12 12 13 14 16 17 17 17 17 17 18 19 18 18 17 16 16 15 15 13 9 9 10 9 9 10 10 10 11
14 15 15 18 16 16 18 15 15 14 14 15 16 13 11 13 13 13 15 16 17 17 18 18 18 19 19 19 18 18 18 17 16 16 16 13 11 11 11 11 11 12 12 11
14 15 15 18 16 22 14 13 14 15 14 12 13 12 13 13 13 13 14 16 17 18 18 18 18 19 18 19 18 18 18 18 18 18 17 17 14 14 13 13 13 14 13 13
11 14 16 18 18 16 14 13 13 15 13 10 12 12 12 13 13 13 15 16 17 17 17 18 18 18 19 19 18 18 19 19 19 19 18 17 16 16 15 15 15 13 13 14
10 11 15 16 20 21 15 12 12 13 16 10 12 13 13 13 14 14 16 16 17 17 18 17 18 18 19 19 18 19 20 21 20 19 18 18 16 17 17 16 15 14 14 14
14 13 16 16 17 15 12 11 11 16 15 11 11 12 12 13 13 14 16 16 16 17 17 16 18 19 20 19 18 20 21 22 20 19 18 18 16 15 15 15 15 15 14 14
15 15 15 15 18 20 11 11 14 11 9 10 10 10 13 12 13 15 15 16 16 16 16 17 18 19 20 20 20 20 22 20 19 19 19 19 17 15 15 15 14 14 15 15
15 12 14 14 14 9 9 9 8 9 11 9 10 9 10 12 12 14 14 14 14 15 15 16 17 18 19 20 21 22 22 20 19 19 19 19 18 17 15 15 14 14 14 14
10 8 12 13 10 9 8 8 8 9 10 9 9 9 9 11 11 13 14 14 14 15 16 16 16 17 19 19 20 22 22 21 19 19 19 18 18 17 16 15 14 14 14 14
10 10 12 12 10 9 8 8 9 9 8 9 8 9 9 10 10 12 13 14 14 15 16 16 17 17 18 19 20 21 22 22 19 19 19 19 18 17 16 15 14 14 13 12
10 11 13 13 10 11 10 9 9 10 10 10 10 9 9 10 10 11 13 13 14 15 16 16 17 18 19 20 21 22 23 22 19 18 18 20 18 18 17 17 15 13 13 12